This is the latest recevied weather packets stored in our database for station/object EFHK. If no packets are shown the sender has not sent any weather packets the latest 1 day(s).
| Time | Temp. | Humidity | Pressure | Rain* | Wind** | Luminosity | Snow |
|---|---|---|---|---|---|---|---|
| 1778005403 | 7.78° C | 39% | 1006 hPa | - | 4.47 m/s, 250° | - | - |
| 1778004801 | 7.78° C | 39% | 1005 hPa | - | 4.92 m/s, 250° | - | - |
| 1778004203 | 7.78° C | 39% | 1005 hPa | - | 4.92 m/s, 250° | - | - |
| 1778003602 | 7.78° C | 39% | 1005 hPa | - | 4.92 m/s, 250° | - | - |
| 1778002998 | 8.89° C | 34% | 1005 hPa | - | 5.81 m/s, 250° | - | - |
| 1778002400 | 8.89° C | 34% | 1005 hPa | - | 5.81 m/s, 250° | - | - |
| 1778001799 | 8.89° C | 34% | 1005 hPa | - | 5.81 m/s, 250° | - | - |
| 1778001205 | 8.89° C | 36% | 1005 hPa | - | 5.81 m/s, 260° | - | - |
| 1778000603 | 8.89° C | 36% | 1005 hPa | - | 5.81 m/s, 260° | - | - |
| 1778000003 | 8.89° C | 36% | 1005 hPa | - | 5.81 m/s, 260° | - | - |
| 1777999405 | 10° C | 31% | 1005 hPa | - | 6.71 m/s, 270° | - | - |
| 1777998801 | 10° C | 31% | 1005 hPa | - | 6.71 m/s, 270° | - | - |
| 1777998204 | 10° C | 31% | 1005 hPa | - | 6.71 m/s, 270° | - | - |
| 1777997601 | 10.56° C | 29% | 1005 hPa | - | 7.6 m/s, 260° | - | - |
| 1777997009 | 10.56° C | 29% | 1005 hPa | - | 7.6 m/s, 260° | - | - |
| 1777996404 | 10.56° C | 29% | 1005 hPa | - | 7.6 m/s, 260° | - | - |
| 1777995921 | 10.56° C | 29% | 1004 hPa | - | 7.15 m/s, 260° | - | - |
| 1777995201 | 10.56° C | 29% | 1004 hPa | - | 7.15 m/s, 260° | - | - |
| 1777994603 | 10.56° C | 29% | 1004 hPa | - | 7.15 m/s, 260° | - | - |
| 1777994001 | 10.56° C | 32% | 1004 hPa | - | 7.15 m/s, 250° | - | - |
| 1777993399 | 10.56° C | 32% | 1004 hPa | - | 7.15 m/s, 250° | - | - |
| 1777992801 | 10.56° C | 32% | 1004 hPa | - | 7.15 m/s, 250° | - | - |
| 1777992200 | 10° C | 37% | 1004 hPa | - | 5.81 m/s, 280° | - | - |
| 1777991599 | 10° C | 37% | 1004 hPa | - | 5.81 m/s, 280° | - | - |
| 1777991001 | 10° C | 37% | 1024 hPa | - | 5.81 m/s, 280° | - | - |
* Rain since midnight (hover to see other rain measurements)
** Current wind speed in m/s (hover to see current wind gust speed)